TimeCDT,TemperatureF,Dew PointF,Humidity,Sea Level PressureIn,VisibilityMPH,Wind Direction,Wind SpeedMPH,Gust SpeedMPH,PrecipitationIn,Events,Conditions,WindDirDegrees,DateUTC
12:18 AM,62.6,62.6,100,30.00,2.0,Calm,Calm,-,N/A,,Clear,0,2013-08-22 05:18:00
12:32 AM,60.8,60.8,100,30.00,0.8,Calm,Calm,-,N/A,,Clear,0,2013-08-22 05:32:00
12:54 AM,60.1,59.0,96,29.99,0.5,Calm,Calm,-,N/A,Fog,Fog,0,2013-08-22 05:54:00
1:01 AM,60.8,59.0,94,30.00,0.2,Calm,Calm,-,N/A,Fog,Fog,0,2013-08-22 06:01:00
1:20 AM,60.8,60.8,100,29.99,0.5,Calm,Calm,-,N/A,Fog,Fog,0,2013-08-22 06:20:00
1:39 AM,62.6,60.8,94,29.99,1.8,Calm,Calm,-,N/A,,Clear,0,2013-08-22 06:39:00
1:47 AM,60.8,60.8,100,29.99,0.8,Calm,Calm,-,N/A,,Mist,0,2013-08-22 06:47:00
1:54 AM,60.1,59.0,96,29.98,0.8,Calm,Calm,-,N/A,,Mist,0,2013-08-22 06:54:00
2:06 AM,60.8,60.8,100,29.99,2.5,Calm,Calm,-,N/A,,Mostly Cloudy,0,2013-08-22 07:06:00
2:09 AM,60.8,59.0,94,30.00,3.0,Calm,Calm,-,N/A,,Scattered Clouds,0,2013-08-22 07:09:00
2:22 AM,59.0,57.2,94,30.00,1.5,Calm,Calm,-,N/A,,Partly Cloudy,0,2013-08-22 07:22:00
2:25 AM,59.0,57.2,94,30.00,0.8,Calm,Calm,-,N/A,,Mist,0,2013-08-22 07:25:00
2:38 AM,60.8,59.0,94,30.01,1.0,Calm,Calm,-,N/A,,Clear,0,2013-08-22 07:38:00
2:54 AM,59.0,57.9,96,30.00,4.0,North,3.5,-,N/A,,Clear,350,2013-08-22 07:54:00
3:54 AM,59.0,57.0,93,30.01,10.0,NNW,5.8,-,N/A,,Clear,340,2013-08-22 08:54:00
4:54 AM,57.9,57.0,97,30.01,10.0,Calm,Calm,-,N/A,,Partly Cloudy,0,2013-08-22 09:54:00
5:54 AM,57.0,55.9,96,30.04,10.0,Calm,Calm,-,N/A,,Partly Cloudy,0,2013-08-22 10:54:00
6:54 AM,59.0,57.0,93,30.08,10.0,NW,4.6,-,N/A,,Mostly Cloudy,320,2013-08-22 11:54:00
7:54 AM,61.0,57.0,87,30.09,10.0,Calm,Calm,-,N/A,,Partly Cloudy,0,2013-08-22 12:54:00
8:54 AM,63.0,57.9,84,30.09,10.0,NNW,5.8,-,N/A,,Partly Cloudy,330,2013-08-22 13:54:00
9:54 AM,71.1,55.9,59,30.09,10.0,NNW,4.6,-,N/A,,Clear,330,2013-08-22 14:54:00
10:54 AM,73.0,55.0,53,30.12,10.0,NW,9.2,-,N/A,,Clear,320,2013-08-22 15:54:00
11:54 AM,75.0,53.1,46,30.12,10.0,North,3.5,-,N/A,,Clear,350,2013-08-22 16:54:00
12:54 PM,77.0,51.1,40,30.09,10.0,NNW,6.9,-,N/A,,Clear,340,2013-08-22 17:54:00
1:54 PM,79.0,48.0,34,30.09,10.0,NW,11.5,16.1,N/A,,Clear,320,2013-08-22 18:54:00
2:54 PM,79.0,48.0,34,30.09,10.0,WNW,5.8,-,N/A,,Clear,290,2013-08-22 19:54:00
3:54 PM,78.1,46.9,33,30.09,10.0,North,8.1,-,N/A,,Clear,360,2013-08-22 20:54:00
4:54 PM,80.1,46.0,30,30.09,10.0,North,5.8,-,N/A,,Clear,350,2013-08-22 21:54:00
5:54 PM,79.0,48.0,34,30.09,10.0,NNE,5.8,-,N/A,,Clear,20,2013-08-22 22:54:00
6:54 PM,73.9,51.1,45,30.09,10.0,ENE,8.1,-,N/A,,Partly Cloudy,70,2013-08-22 23:54:00
7:54 PM,70.0,51.1,51,30.12,10.0,NE,4.6,-,N/A,,Mostly Cloudy,50,2013-08-23 00:54:00
8:54 PM,66.0,50.0,56,30.14,10.0,Calm,Calm,-,N/A,,Clear,0,2013-08-23 01:54:00
9:54 PM,61.0,50.0,67,30.16,10.0,Calm,Calm,-,N/A,,Clear,0,2013-08-23 02:54:00
10:54 PM,57.0,50.0,77,30.17,10.0,Calm,Calm,-,N/A,,Clear,0,2013-08-23 03:54:00
11:54 PM,52.0,48.0,86,30.18,10.0,Calm,Calm,-,N/A,,Clear,0,2013-08-23 04:54:00